Pampa, TX

6:13 AM CST on December 06, 2016 (GMT -0600)
Perry Lefors

Weather History for KPPA - December, 2013

Change the Weather History Date:

Friday, December 6, 2013

  Actual Average Record
Temperature  
Mean Temperature 12 °F -  
Max Temperature 18 °F 53 °F 76 °F (1987)
Min Temperature 5 °F 27 °F 0 °F (1972)
Degree Days  
Heating Degree Days 54    
Moisture  
Dew Point 5 °F    
Average Humidity 75    
Maximum Humidity 85    
Minimum Humidity 57    
Precipitation  
Precipitation 0.00 in - - ()
Sea Level Pressure  
Sea Level Pressure 30.30 in    
Wind  
Wind Speed 10 mph (NNE)    
Max Wind Speed 15 mph    
Max Gust Speed 17 mph    
Visibility 9 miles    
Events Snow    
Averages and records for this station are not official NWS values.
T = Trace of Precipitation, MM = Missing Value Source: NWS Daily Summary

Daily Weather History Graph

Daily Weather History Graph

Search for Another Location

Airport or City:

Trip Planner

Search our weather history database for the weather conditions in past years. The results will help you decide how hot, cold, wet, or windy it might be!

Date:

Astronomy

Dec. 06, 2013 Rise Set
Actual Time 7:39 AM CST 5:30 PM CST
Civil Twilight 7:11 AM CST 5:58 PM CST
Nautical Twilight 6:39 AM CST 6:30 PM CST
Astronomical Twilight 6:08 AM CST 7:01 PM CST
Moon 10:51 AM CST 9:58 PM CST
Length of Visible Light 10h 47m
Length of Day
9h 50m
Waxing Crescent, 19% of the Moon is Illuminated
Dec 6
Waxing Crescent
Dec 9
First Quarter
Dec 17
Full
Dec 25
Last Quarter
Jan 1
New

Hourly Weather History & Observations

Time (CST) Temp. Windchill Dew Point Humidity Pressure Visibility Wind Dir Wind Speed Gust Speed Precip Events Conditions
12:15 AM 11.8 °F -1.5 °F 7.2 °F 81% 30.19 in 10.0 mi NE 10.4 mph - N/A   Overcast
12:35 AM 11.8 °F -0.7 °F 7.2 °F 81% 30.19 in 10.0 mi NNE 9.2 mph - N/A   Overcast
12:55 AM 11.7 °F -1.7 °F 7.2 °F 82% 30.18 in 10.0 mi NE 10.4 mph - N/A   Overcast
1:15 AM 11.3 °F -0.4 °F 7.2 °F 83% 30.18 in 10.0 mi NNE 8.1 mph - N/A   Overcast
1:35 AM 11.3 °F -1.3 °F 6.6 °F 81% 30.17 in 10.0 mi NE 9.2 mph - N/A   Overcast
1:55 AM 11.3 °F -2.9 °F 6.8 °F 82% 30.17 in 10.0 mi NE 11.5 mph - N/A   Overcast
2:15 AM 11.5 °F -2.7 °F 7.7 °F 85% 30.19 in 7.0 mi NNE 11.5 mph - N/A Snow Light Snow
2:35 AM 10.8 °F -2.8 °F 6.4 °F 83% 30.20 in 10.0 mi NNE 10.4 mph - N/A Snow Light Snow
2:55 AM 10.6 °F -2.2 °F 6.1 °F 82% 30.21 in 10.0 mi NE 9.2 mph - N/A Snow Light Snow
3:15 AM 10.9 °F -2.6 °F 6.6 °F 83% 30.21 in 10.0 mi NNE 10.4 mph - N/A   Overcast
3:35 AM 10.9 °F -2.6 °F 6.8 °F 83% 30.19 in 7.0 mi NNE 10.4 mph - N/A Snow Light Snow
3:55 AM 10.8 °F -3.6 °F 6.8 °F 84% 30.19 in 5.0 mi North 11.5 mph - N/A Snow Light Snow
4:15 AM 10.4 °F -4.8 °F 6.4 °F 84% 30.18 in 7.0 mi North 12.7 mph - N/A Snow Light Snow
4:35 AM 10.4 °F -6.0 °F 6.3 °F 83% 30.20 in 10.0 mi North 15.0 mph - N/A Snow Light Snow
4:55 AM 10.6 °F -3.1 °F 6.4 °F 83% 30.21 in 7.0 mi North 10.4 mph - N/A Snow Light Snow
5:15 AM 10.2 °F -2.7 °F 6.1 °F 83% 30.22 in 10.0 mi NNE 9.2 mph - N/A Snow Light Snow
5:35 AM 10.2 °F -2.7 °F 5.9 °F 83% 30.23 in 10.0 mi North 9.2 mph - N/A   Overcast
5:55 AM 10.2 °F -3.5 °F 5.9 °F 83% 30.22 in 10.0 mi NNE 10.4 mph - N/A Snow Light Snow
6:15 AM 10.2 °F -5.0 °F 5.9 °F 83% 30.22 in 7.0 mi North 12.7 mph - N/A Snow Light Snow
6:35 AM 10.0 °F -4.5 °F 5.5 °F 82% 30.23 in 5.0 mi NNE 11.5 mph - N/A Snow Light Snow
6:55 AM 10.2 °F -4.3 °F 5.7 °F 82% 30.23 in 7.0 mi North 11.5 mph - N/A Snow Light Snow
7:15 AM 10.2 °F -5.0 °F 5.7 °F 82% 30.24 in 10.0 mi North 12.7 mph 17.3 mph N/A Snow Light Snow
7:35 AM 10.0 °F -3.7 °F 5.5 °F 82% 30.25 in 10.0 mi NNE 10.4 mph 16.1 mph N/A   Overcast
7:55 AM 10.2 °F -5.0 °F 5.5 °F 81% 30.25 in 10.0 mi NNE 12.7 mph - N/A   Overcast
8:15 AM 10.0 °F -4.5 °F 5.4 °F 81% 30.27 in 10.0 mi NNE 11.5 mph - N/A   Overcast
8:35 AM 10.2 °F -2.7 °F 5.0 °F 79% 30.28 in 7.0 mi NNE 9.2 mph - N/A Snow Light Snow
9:15 AM 10.8 °F -4.3 °F 5.7 °F 80% 30.28 in 7.0 mi NNE 12.7 mph - N/A Snow Light Snow
9:35 AM 11.5 °F -3.4 °F 5.9 °F 78% 30.29 in 7.0 mi NNE 12.7 mph 17.3 mph N/A   Mostly Cloudy
9:55 AM 11.8 °F -1.5 °F 5.7 °F 76% 30.32 in 10.0 mi North 10.4 mph - N/A   Overcast
10:15 AM 12.0 °F -2.0 °F 5.5 °F 75% 30.33 in 10.0 mi NNE 11.5 mph - N/A   Overcast
10:35 AM 12.4 °F -1.6 °F 5.7 °F 75% 30.33 in 10.0 mi North 11.5 mph 17.3 mph N/A   Overcast
10:55 AM 13.6 °F -0.7 °F 6.8 °F 74% 30.34 in 7.0 mi North 12.7 mph - N/A Snow Light Snow
11:15 AM 13.8 °F 0.2 °F 7.2 °F 75% 30.33 in 7.0 mi NNE 11.5 mph - N/A Snow Light Snow
11:35 AM 14.5 °F 1.9 °F 7.0 °F 72% 30.34 in 10.0 mi North 10.4 mph 17.3 mph N/A   Overcast
11:55 AM 14.7 °F 1.4 °F 6.6 °F 70% 30.34 in 10.0 mi North 11.5 mph - N/A   Overcast
12:15 PM 14.7 °F 1.4 °F 6.3 °F 69% 30.34 in 10.0 mi NNE 11.5 mph 17.3 mph N/A   Overcast
12:35 PM 15.3 °F 3.5 °F 6.3 °F 68% 30.33 in 10.0 mi NNE 9.2 mph - N/A   Overcast
12:55 PM 16.2 °F 3.2 °F 6.4 °F 66% 30.33 in 10.0 mi North 11.5 mph - N/A   Overcast
1:15 PM 16.5 °F 5.1 °F 6.4 °F 65% 30.32 in 10.0 mi North 9.2 mph - N/A   Mostly Cloudy
1:35 PM 16.2 °F 3.9 °F 6.4 °F 66% 30.31 in 10.0 mi NNE 10.4 mph 16.1 mph N/A   Mostly Cloudy
1:55 PM 16.3 °F 3.4 °F 6.4 °F 65% 30.31 in 10.0 mi North 11.5 mph 17.3 mph N/A   Mostly Cloudy
2:15 PM 16.7 °F 5.3 °F 6.1 °F 63% 30.32 in 10.0 mi North 9.2 mph - N/A   Scattered Clouds
2:35 PM 17.2 °F 6.8 °F 5.4 °F 60% 30.30 in 10.0 mi North 8.1 mph 16.1 mph N/A   Scattered Clouds
2:55 PM 18.3 °F 8.2 °F 5.5 °F 57% 30.30 in 10.0 mi NNE 8.1 mph - N/A   Scattered Clouds
3:15 PM 18.5 °F 7.5 °F 5.5 °F 57% 30.30 in 10.0 mi NE 9.2 mph - N/A   Scattered Clouds
3:35 PM 17.6 °F 5.0 °F 5.0 °F 58% 30.30 in 10.0 mi NNE 11.5 mph - N/A   Clear
3:55 PM 18.0 °F 6.9 °F 5.2 °F 57% 30.30 in 10.0 mi NE 9.2 mph - N/A   Clear
4:15 PM 17.4 °F 6.2 °F 5.0 °F 58% 30.32 in 10.0 mi NNE 9.2 mph - N/A   Clear
4:35 PM 16.7 °F 5.3 °F 4.8 °F 60% 30.33 in 10.0 mi NNE 9.2 mph - N/A   Clear
5:55 PM 11.8 °F 3.9 °F 3.2 °F 68% 30.35 in 10.0 mi NE 4.6 mph - N/A   Clear
6:15 PM 10.9 °F 4.7 °F 2.7 °F 69% 30.37 in 10.0 mi NE 3.5 mph - N/A   Clear
6:35 PM 11.1 °F 3.1 °F 2.3 °F 68% 30.38 in 10.0 mi NE 4.6 mph - N/A   Clear
6:55 PM 9.7 °F -0.1 °F 2.1 °F 71% 30.38 in 10.0 mi NE 5.8 mph - N/A   Clear
7:15 PM 8.6 °F -1.3 °F 2.1 °F 75% 30.39 in 10.0 mi ENE 5.8 mph - N/A   Clear
7:35 PM 8.2 °F -1.8 °F 1.9 °F 76% 30.40 in 10.0 mi ENE 5.8 mph - N/A   Clear
7:55 PM 7.5 °F -3.9 °F 1.4 °F 76% 30.40 in 10.0 mi NE 6.9 mph - N/A   Clear
8:15 PM 8.1 °F -4.3 °F 2.3 °F 77% 30.39 in 10.0 mi ENE 8.1 mph - N/A   Clear
8:35 PM 7.7 °F -4.8 °F 2.3 °F 79% 30.39 in 10.0 mi NE 8.1 mph - N/A   Clear
8:55 PM 7.7 °F -3.7 °F 2.1 °F 78% 30.39 in 10.0 mi NE 6.9 mph - N/A   Clear
9:15 PM 7.7 °F -4.8 °F 2.1 °F 78% 30.39 in 10.0 mi ENE 8.1 mph - N/A   Clear
9:35 PM 7.2 °F -4.3 °F 1.4 °F 77% 30.40 in 10.0 mi ENE 6.9 mph - N/A   Clear
9:55 PM 6.4 °F -3.9 °F 0.5 °F 77% 30.41 in 10.0 mi ENE 5.8 mph - N/A   Clear
10:15 PM 5.7 °F -6.1 °F -0.0 °F 77% 30.41 in 10.0 mi NE 6.9 mph - N/A   Clear
10:35 PM 6.3 °F -6.5 °F -0.0 °F 75% 30.42 in 10.0 mi ENE 8.1 mph - N/A   Clear
10:55 PM 6.3 °F -5.4 °F -0.2 °F 75% 30.43 in 10.0 mi ENE 6.9 mph - N/A   Clear
11:15 PM 5.4 °F -7.6 °F -0.6 °F 76% 30.44 in 10.0 mi ENE 8.1 mph - N/A   Clear
11:35 PM 5.2 °F -6.7 °F -0.6 °F 77% 30.44 in 10.0 mi East 6.9 mph - N/A   Clear
11:55 PM 5.7 °F -7.2 °F -0.8 °F 75% 30.44 in 10.0 mi East 8.1 mph - N/A   Clear